Location: McFarlands Corners
(41.4117°N, 81.3382°W)
Time: 08:34:36
(UTC+00:00)

Vanguard 1 Rocket - Pass Details

Date: 17 February 2026
Orbit: 653 x 4214 km, 34.3° (Epoch: 12 March)

Event Time Altitude Azimuth Distance (km) Brightness Sun altitude
Rises 22:23:24 0° 272° (W) 5,541 12.8 6.0°
Reaches altitude 10° 22:26:23 10° 269° (W) 4,902 12.8 5.5°
Maximum altitude 22:41:47 63° 193° (SSW) 3,698 10.8 2.8°
Drops below altitude 10° 23:06:43 10° 120° (ESE) 7,413 11.6 -1.7°
Sets 23:12:37 0° 118° (ESE) 8,392 11.8 -2.8°
